www.pogodaiklimat.ru

Погода и климат >> Архив погоды >> Россия >> Ямало-Ненецкий АО >> Тамбей


ПОГОДА в Тамбее

  • Прогноз погоды в Тамбее
  • Монитор погоды в Тамбее

АРХИВ ПОГОДЫ в Тамбее

Время (UTC), дата Ветер
(напр.,м/с)
 
Видим.   Явления Облачность Т
(С)
Тd
(С)
f
(%)
Тe
(С)
Тes
(С)
Комфортность P
(гПа)
Po
(гПа)
Тmin
(С)
Tmax
(С)
R
(мм)
R24
(мм)
S
(см)
06 13.09 В 4 н/о н/о +3.7 +0.9 82 -1 -1 1018.3 1017.3
09 13.09 СВ 3 н/о н/о +3.6 +1.0 83 -0 1018.3 1017.3
12 13.09 СВ 5 н/о н/о +3.9 +0.9 81 -1 -1 1018.3 1017.3
15 13.09 В 6 н/о н/о +3.6 -0.1 77 -2 -2 1018.3 1017.3
18 13.09 В 5 н/о н/о +2.1 -0.5 83 -3 -3 1018.3 1017.3
21 13.09 В 5 н/о н/о +1.4 -1.8 79 -4 -4 1018.3 1017.3
00 14.09 В 5 н/о н/о +1.4 -1.5 81 -4 -4 1018.3 1017.3
03 14.09 В 5 н/о н/о +2.1 -0.3 84 -3 -3 1018.3 1017.3
06 14.09 В 3 н/о н/о +2.0 +0.4 89 -2 -2 1018.3 1017.3
09 14.09 В 3 н/о н/о +3.2 +0.6 83 -1 -1 1018.3 1017.3
12 14.09 СВ 4 н/о н/о +3.5 -0.3 76 -1 -1 1018.3 1017.3
15 14.09 С 3 н/о н/о +3.1 -0.2 79 -1 -1 1018.3 1017.3
18 14.09 С 4 н/о н/о +1.3 +0.9 97 -4 -4 1018.3 1017.3
21 14.09 С 3 н/о н/о -0.1 +0.3 103 -5 -5 1017.0 1016.0
00 15.09 С 3 н/о н/о -0.3 +0.1 103 -5 -5 1017.0 1016.0
03 15.09 С 2 н/о н/о +1.5 +1.6 101 -2 -2 1015.7 1014.7
06 15.09 В 2 н/о н/о +3.1 +0.7 84 0 1015.7 1014.7
09 15.09 СВ 3 н/о н/о +3.6 +0.6 81 -0 1014.3 1013.3
12 15.09 СВ 5 н/о н/о +3.7 +0.6 80 -1 -1 1013.0 1012.0
15 15.09 В 7 н/о н/о +3.8 +0.1 77 -2 -2 1011.7 1010.7
18 15.09 В 7 н/о н/о +3.7 +1.1 83 -2 -2 1011.7 1010.7
21 15.09 В 8 н/о н/о +3.6 +1.3 85 -3 -3 1010.3 1009.3
00 16.09 В 9
{13}
н/о н/о +3.5 +1.4 86 -3 -3 1009.0 1008.0
03 16.09 В 10
{15}
н/о н/о +3.1 -0.7 76 -4 -4 1007.7 1006.7
06 16.09 В 12
{16}
н/о н/о +3.0 +0.9 86 -5 -5 1006.3 1005.3
09 16.09 В 13
{17}
н/о н/о +2.9 +1.1 88 -5 -5 1005.0 1004.0
12 16.09 В 14
{19}
н/о н/о +2.5 +1.3 92 -6 -6 1003.7 1002.7
15 16.09 В 14
{21}
н/о н/о +2.5 +1.9 96 -6 -6 1002.3 1001.3
18 16.09 В 11
{18}
н/о н/о +2.6 +1.7 94 -5 -5 999.7 998.7
21 16.09 В 9
{14}
н/о н/о +2.5 +1.9 96 -5 -5 998.3 997.3
00 17.09 В 7
{13}
н/о н/о +2.7 +2.1 96 -4 -4 998.3 997.3
03 17.09 В 7 н/о н/о +2.9 +2.6 98 -4 997.0 996.0
06 17.09 В 7 н/о н/о +3.7 +3.8 101 -3 -3 995.7 994.7
09 17.09 ЮВ 8 н/о н/о +4.9 +5.0 -1 -1 995.0 994.0
12 17.09 ЮВ 6 н/о н/о +5.3 +5.4 0 0 995.1 994.1
15 17.09 ЮВ 6 н/о н/о +5.8 +5.5 98 +1 +1 997.0 996.0
18 17.09 Ю 3 н/о н/о +4.3 +4.6 102 0 997.0 996.0
21 17.09 Ю 4 н/о н/о +1.7 +2.2 104 -4 -4 997.0 996.0
00 18.09 Ю 6 н/о н/о +2.5 +3.1 104 -4 -4 997.0 996.0
03 18.09 ЮВ 5 н/о н/о +3.4 +4.0 104 -2 -2 998.3 997.3
06 18.09 ЮВ 6 н/о н/о +5.4 +5.3 99 0 998.3 997.3
09 18.09 В 5 н/о н/о +4.7 +4.7 100 -0 999.7 998.7
12 18.09 ЮВ 5 н/о н/о +4.1 +4.5 103 -1 -1 999.7 998.7
15 18.09 ЮВ 5 н/о н/о +4.2 +4.6 103 -1 -1 1001.0 1000.0
18 18.09 ЮВ 5 н/о н/о +3.9 +4.0 101 -1 -1 1001.0 1000.0
21 18.09 В 5 н/о н/о +3.7 +3.7 100 -2 -2 1001.0 1000.0
00 19.09 В 5 н/о н/о +3.0 +3.3 102 -3 -3 999.7 998.7
03 19.09 ЮВ 5 н/о н/о +3.9 +4.3 103 -1 -1 999.7 998.7
06 19.09 В 5 н/о н/о +4.1 +4.7 104 -1 -1 998.3 997.3
09 19.09 В 5 н/о н/о +5.5 +5.5 100 +1 +1 998.3 997.3
12 19.09 В 5 н/о н/о +6.3 +6.4 101 +2 998.3 997.3
15 19.09 В 6 н/о н/о +6.6 +6.5 99 +2 997.0 996.0
18 19.09 В 7 н/о н/о +6.7 +6.8 101 +2 995.7 994.7
21 19.09 В 7 н/о н/о +6.3 +6.7 103 +1 994.3 993.3
00 20.09 В 8 н/о н/о +6.1 +6.4 102 0 993.0 992.0

 

Местоположение метеостанции Тамбей (Ямало-Ненецкий АО, Россия): широта 71.48 долгота 71.82 высота над уровнем моря 8 м.

В архиве по умолчанию представлена погода в Тамбее за последнюю неделю. Архивные данные за месяц целиком и за предыдущие месяцы, начиная с января 2011 года, Вы можете получить, выбрав интересующий диапазон дат из раскрывающегося списка и нажав кнопку "Ввод!".


*Определитесь, кто Вы:
робот инопланетянин человек

Внимание! Время в таблицах - всемирное. Для получения местного времени необходимо прибавить поправку, которая равна 5 ч.

Смотрите также архив погоды в соседних городах и на ближайших метеорологических станциях:

Погода в Сеяхе (Ямало-Ненецкий АО, Россия) (148 км)
Погода в Имени Попова (Ямало-Ненецкий АО, Россия) (214 км)
Погода в Гыде (Ямало-Ненецкий АО, Россия) (248 км)
Погода в Марресале (Ямало-Ненецкий АО, Россия) (270 км)
Погода в Антипаюте (Ямало-Ненецкий АО, Россия) (327 км)
Погода в Усть-Каре (Ненецкий АО, Россия) (357 км)
Погода на Острове Диксон (Красноярский край, Россия) (365 км)
Погода в Сопочной Карге (Красноярский край, Россия) (382 км)
Погода в Амдерме (Ненецкий АО, Россия) (419 км)
Погода в Новом Порте (Ямало-Ненецкий АО, Россия) (425 км)

Пояснения к столбцам:

Ветер - указаны скорость ветра в м/с - средняя за 10 мин, порывы в срок и между сроками (в фигурных скобках) и направление, откуда дует ветер: С - северный, СВ - северо-восточный, В - восточный, ЮВ - юго-восточный, Ю - южный, ЮЗ - юго-западный, З - западный, СЗ - северо-западный.
Видимость - горизонтальная дальность видимости в метрах или километрах. При видимости от 1 до 10 км при отсутствии осадков обычно наблюдается дымка, при ухудшении видимости до 1 км и менее - туман. В сухую погоду видимость может ухудшаться дымом, пылью или мглою.
Явления - указаны атмосферные явления, наблюдавшиеся в срок или в последний час перед сроком; фигурными скобками обозначены явления, наблюдавшиеся между сроками (за 1-3 часа до срока); квадратными скобками обозначены град или гололедные отложения с указанием их диаметра в мм.
Облачность - указаны через наклонную черту общая и нижняя облачность в баллах и высота нижней границы облаков в метрах; квадратными скобками обозначены формы облаков: Ci - перистые, Cs - перисто-слоистые, Cc - перисто-кучевые, Ac - высококучевые, As - высокослоистые, Sc - слоисто-кучевые, Ns - слоисто-дождевые, Cu - кучевые, Cb - кучево-дождевые. Подробнее классификацию облаков см. в Атласе облаков (PDF).
T - Температура воздуха - температура, измеренная на высоте 2 м над землей.
Td - Температура точки росы - температура, при понижении до которой содержащийся в воздухе водяной пар достигнет насыщения.
f - Относительная влажность воздуха - влажноcть воздуха, измеренная на высоте 2 м над землей.
Te - Эффективная температура - температура, которую ощущает одетый по сезону человек в тени. Характеристика душности погоды. При расчете учитывается влияние влажности воздуха и скорости ветра на теплоощущения человека.
Tes - Эффективная температура на солнце - температура, которую ощущает человек, с поправкой на солнечный нагрев. Характеристика знойности погоды. Зависит от высоты солнца над горизонтом, облачности и скорости ветра. Ночью, в пасмурную погоду, а также при ветре 12 м/с и более поправка равна нулю.
P - Атмосферное давление - приведенное к уровню моря атмосферное давление.
Po - Атмосферное давление - измеренное на уровне метеостанции атмосферное давление.
Tmin - Минимальная температура - минимум температуры воздуха на высоте 2 м над землей.
Tmax - Максимальная температура - максимум температуры воздуха на высоте 2 м над землей.
R - Количество осадков - Количество выпавших осадков за период времени, мм. При наведении курсора мыши на число - период времени, за который выпало указанное количество осадков.
R24 - Количество осадков - Количество выпавших осадков за 24 часа, мм.
S - Снежный покров - Высота снежного покрова, см. При наведении курсора мыши на число - состояние снежного покрова и степень покрытия местности в баллах.